FW2359 Weather Reports


Display with metric or nautical units.
time (UTC)temp
F
wind
direction
speed
MPH
gust
MPH
rain 1hr
in
rain 24hr
in
rain mn
in
humidity
%
barometer
mb
20260504150145 59 270 10.0 18.0 0.00 0.00 0.00 73 1011.0
20260504130136 51 179 2.0 7.0 0.00 0.00 0.00 80 1010.2
20260504081530 59 142 6.0 8.0 0.00 0.00 0.00 62 1010.1
20260504050107 66 135 6.0 7.0 0.00 0.00 0.00 50 1009.3
20260504044530 67 124 5.0 7.0 0.00 0.00 0.00 50 1009.2
20260504043032 67 131 6.0 7.0 0.00 0.00 0.00 49 1009.0
20260504041530 68 132 6.0 8.0 0.00 0.00 0.00 48 1008.8
20260504034532 71 135 5.0 7.0 0.00 0.00 0.00 45 1008.4
20260504033106 72 140 5.0 7.0 0.00 0.00 0.00 44 1008.2
20260504031607 74 148 4.0 6.0 0.00 0.00 0.00 42 1008.1
20260504030031 77 123 3.0 6.0 0.00 0.00 0.00 38 1008.0
20260504024645 79 90 3.0 4.0 0.00 0.00 0.00 35 1008.0
20260504023106 81 90 3.0 5.0 0.00 0.00 0.00 33 1008.0
20260504021531 83 101 3.0 6.0 0.00 0.00 0.00 31 1008.1
20260504020031 85 101 5.0 11.0 0.00 0.00 0.00 30 1008.2
20260504013029 88 95 3.0 8.0 0.00 0.00 0.00 27 1008.4
20260504010106 89 64 2.0 7.0 0.00 0.00 0.00 26 1008.8
20260504004529 90 45 4.0 8.0 0.00 0.00 0.00 26 1008.9
20260504003031 90 51 4.0 11.0 0.00 0.00 0.00 25 1009.0
20260504001531 90 46 4.0 12.0 0.00 0.00 0.00 25 1009.1
20260504000030 90 23 4.0 10.0 0.00 0.00 0.00 25 1009.2
20260503234529 90 31 5.0 9.0 0.00 0.00 0.00 25 1009.4
20260503233032 90 69 3.0 8.0 0.00 0.00 0.00 27 1009.7
20260503230029 88 109 4.0 8.0 0.00 0.00 0.00 27 1010.1
20260503224531 88 116 4.0 11.0 0.00 0.00 0.00 27 1010.4
20260503223030 89 115 3.0 11.0 0.00 0.00 0.00 26 1010.7
20260503221529 88 94 4.0 9.0 0.00 0.00 0.00 27 1010.9
20260503220104 88 118 6.0 14.0 0.00 0.00 0.00 27 1011.1
20260503214606 88 91 5.0 11.0 0.00 0.00 0.00 28 1011.3
20260503213029 87 105 4.0 9.0 0.00 0.00 0.00 29 1011.6
20260503211614 86 98 6.0 14.0 0.00 0.00 0.00 29 1011.8
20260503210032 86 100 7.0 15.0 0.00 0.00 0.00 30 1012.0
20260503204529 86 120 6.0 11.0 0.00 0.00 0.00 31 1012.2
20260503203111 86 99 5.0 12.0 0.00 0.00 0.00 32 1012.4
20260503194530 82 311 3.0 7.0 0.00 0.00 0.00 37 1012.9
20260503193031 81 252 2.0 6.0 0.00 0.00 0.00 39 1013.1
20260503191608 81 309 3.0 7.0 0.00 0.00 0.00 41 1013.2
20260503190029 80 302 1.0 4.0 0.00 0.00 0.00 41 1013.5
20260503184530 80 345 2.0 5.0 0.00 0.00 0.00 42 1013.6
20260503183028 78 26 2.0 5.0 0.00 0.00 0.00 45 1013.9
20260503181530 75 23 3.0 6.0 0.00 0.00 0.00 50 1014.0
20260503180030 72 335 3.0 5.0 0.00 0.00 0.00 56 1014.1
20260503173030 68 286 2.0 4.0 0.00 0.00 0.00 64 1014.4
20260503171646 67 281 1.0 3.0 0.00 0.00 0.00 63 1014.6